User: anonymous   Login
Location: Unspecified
(0.0000°N, 0.0000°E)
Time: 13:31:42
(UTC+02:00)
Language:

Meteor 1-31 Rocket - Orbit

View from above orbital plane
View from above orbital plane
View from above satellite
View from above satellite

Ground track
Ground track

The orbit data is extracted from the following two-line orbital elements,

1 12586U 81065B   15210.14429348  .00000866  00000-0  59218-4 0  9995
2 12586 097.4276 199.3531 0021199 050.4192 309.8905 15.08513067852569
Epoch (UTC): 29 July 2015 03:27:46
Eccentricity: 0.0021199
inclination: 97.4276°
perigee height: 526 km
apogee height: 555 km
right ascension of ascending node: 199.3531°
argument of perigee: 50.4192°
revolutions per day: 15.08513067
mean anomaly at epoch: 309.8905°
orbit number at epoch: 85256

The dashed part of the orbit path shows where the satellite is in the earth's shadow,  

DLR